Regional Weather Roundup
Issued by NWS

Home | Current Version | Previous Version | Text Only | Print | Product List | Glossary On
Versions: 1 2 3 4 5 6 7 8 9 10 11 12 13 14 15 16 17 18 19 20 21 22 23 24 25 26 27 28 29 30 31 32 33 34 35 36 37 38 39 40 41 42 43 44 45 46 47 48 49 50
000
ASUS44 KEWX 020111
RWRTX
SOUTH TEXAS REGIONAL WEATHER ROUNDUP
NATIONAL WEATHER SERVICE AUSTIN/SAN ANTONIO TX
800 PM CDT TUE SEP 01 2015

NOTE: "FAIR" INDICATED FEW OR NO CLOUDS BELOW 12,000 FEET WITH NO
SIGNIFICANT WEATHER AND/OR OBSTRUCTIONS TO VISIBILITY.

* - THESE STATIONS ARE NOT NWS OR FAA STATIONS...AND ARE NOT SUBJECT
    TO NWS AND FAA QUALITY CONTROL.

TXZ171-172-183>190-020200-
TEXAS HILL COUNTRY AND EDWARDS PLATEAU

CITY           SKY/WX    TMP DP  RH WIND       PRES   REMARKS
JUNCTION       PTCLDY    89  60  37 SE7       29.97R
*LLANO         CLEAR     88  64  45 SE7       29.99S
BURNET         CLEAR     86  62  44 SE6       30.01R
*HORSESHOE BAY PTCLDY    87  65  47 SE6       29.97S
*KERRVILLE     CLOUDY    85  64  48 SE7       29.99R
*FREDERICKSBRG CLEAR     85  60  41 SE8       29.99S
*ROCKSPRINGS   HAZE      84  61  45 SE6       30.03S VSB<1/4
*BOERNE STAGE  PTCLDY    81  64  57 SE12      30.01R
*CASTROVILLE   CLEAR     85  66  52 SE12      29.97S
HONDO          PTCLDY    85  67  54 SE17G28   29.97R
*UVALDE        CLEAR     89  63  41 E7        29.93S
DEL RIO        CLEAR     92  59  33 E12       29.89S HX  91
LAUGHLIN AFB   CLEAR     92  59  33 SE10      29.90S HX  91
CARRIZO SPRGS  CLEAR     91  63  38 E8        29.89R HX  92
*EAGLE PASS    CLEAR     91  59  33 E9        29.90S HX  90
$$

TXZ173-191>194-202-209-217>225-228-020200-
CENTRAL AND SOUTH CENTRAL TEXAS

CITY           SKY/WX    TMP DP  RH WIND       PRES   REMARKS
GEORGETOWN     CLEAR     84  64  51 SE12      30.00R
AUSTIN/BERGSTM PTCLDY    84  62  47 SE13      29.97R
AUSTIN/MABRY   PTCLDY    84  65  52 SE9       29.99R
*AUSTIN/EXEC   PTCLDY    82  64  54 SE12      29.99R
*LAGO VISTA    PTCLDY    83  66  55 E9        30.00S
SAN MARCOS     CLEAR     84  64  51 SE13      29.99R
NEW BRAUNFELS  CLEAR     85  67  54 SE18G26   29.96R
RANDOLPH AFB   CLEAR     81  68  66 SE10      29.97R
PT SAN ANTONIO CLEAR     85  68  55 SE17      29.95R
SAN ANTONIO    PTCLDY    86  65  49 SE17G23   29.97R
STINSON FIELD  CLEAR     85  68  56 SE15      29.95R
*PLEASANTON    CLEAR     83  66  56 SE12G20   29.96R
*LA GRANGE     CLEAR     82  72  70 SE7       29.98R
*GIDDINGS      CLEAR     80  67  63 SE7       30.03R
*GONZALES      CLEAR     83  68  60 SE12      29.98R
$$

TXZ163>164-176>182-195>201-210>213-226-227-235-020200-
SOUTHEAST TEXAS

CITY           SKY/WX    TMP DP  RH WIND       PRES   REMARKS
COLLEGE STN    CLEAR     81  68  64 SE10      30.01R
*BRYAN         CLEAR     79  67  67 SE8       30.02R
*CALDWELL      CLEAR     79  70  73 E7        30.03R
*CROCKETT      CLEAR     79  68  69 S6        30.06R
*BRENHAM       CLEAR     80  71  72 SE6       30.01S
HUNTSVILLE     PTCLDY    79  69  71 VRB3      30.02S
CONROE         MOCLDY    76  69  79 SE5       30.03S
HOUSTON BUSH   CLOUDY    76  71  85 SE6       30.02S
HOUSTON HOBBY  CLOUDY    77  72  84 E5        30.00S
*HOUSTON SW AP CLOUDY    77  72  86 E5        30.01S
PEARLAND       CLOUDY    79  72  79 E6        30.02R
HOUSTON HOOKS  CLOUDY    78  70  76 SE7       30.01F
ELLINGTON FLD  MOCLDY    77  73  88 NE3       30.01S
SUGAR LAND     CLOUDY    79  71  76 E8        30.00S
*HOUSTON EXEC  CLOUDY    77  72  83 E7        30.02S
*CLEVELAND MUN CLOUDY    74  73  97 CALM      30.03S
*WHARTON       PTCLDY    77  70  78 E7        30.01R
*COLUMBUS      FAIR      79  70  75 SE7       29.99S
*EAGLE LAKE    CLEAR     79  72  80 SE6       30.00R
$$

TXZ214>216-236>238-020200-
THE UPPER TEXAS COAST

CITY           SKY/WX    TMP DP  RH WIND       PRES   REMARKS
*ORANGE        CLOUDY   N/A N/A N/A CALM      30.04S
PORT ARTHUR    CLOUDY    77  74  90 NE8       30.01S
GALVESTON      CLOUDY    81  71  71 E10       30.01R
ANGLETON       MOCLDY    80  72  76 E3        29.99S
*BAY CITY      PTCLDY    77  76  96 CALM      30.00R
PALACIOS       CLEAR     78  70  76 E8        29.99R
$$

TXZ229>234-239>247-020200-
TEXAS COASTAL BEND AND RIO GRANDE PLAINS

CITY           SKY/WX    TMP DP  RH WIND       PRES   REMARKS
VICTORIA       CLEAR     79  69  71 SE10      29.99R
*BEEVILLE      CLEAR     80  73  77 SE9       29.97R
ROCKPORT       PTCLDY    82  73  74 E15       29.97R
*PORT ARANSAS  MOCLDY    81  75  80 SE9G17    29.96S
*PORT LAVACA   NOT AVBL
*INGLESIDE     PTCLDY    82  72  71 SE10G16   29.96S
CORPUS CHRISTI PTCLDY    82  72  71 SE17      29.96R
CORPUS NAS     PTCLDY    80  74  81 SE15      29.96R
*ROBSTOWN      CLEAR     81  74  80 E10       29.97R
ALICE          CLEAR     81  72  74 SE10      29.95R
KINGSVILLE NAS PTCLDY    81  76  84 E8        29.96R
COTULLA        PTCLDY    87  69  54 SE21G26   29.93R HX  91
*FAITH RANCH     N/A     93  61  33 E9        29.90S HX  93
LAREDO         CLEAR     86  71  60 SE20G29   29.93R HX  91
$$

TXZ248>255-020200-
DEEP SOUTH TEXAS

CITY           SKY/WX    TMP DP  RH WIND       PRES   REMARKS
BROWNSVILLE    PTCLDY    81  75  82 E8        29.94R
PORT ISABEL    PTCLDY    84  75  74 E15       29.93S HX  92
*SOUTH PADRE   PTCLDY    82  75  78 E17       29.93S
HARLINGEN      MOCLDY    82  76  81 E17       29.93R
*HEBBRONVILLE  NOT AVBL
MCALLEN        MOCLDY    84  76  76 SE13      29.93S HX  93
*WESLACO       MOCLDY    83  74  76 SE7       29.92S
FALFURRIAS     CLEAR     82  74  75 E6        29.94S
EDINBURG       LGT RAIN  79  74  85 CALM      29.94R
*ZAPATA        PTCLDY    85  68  57 E15G22    29.92R
$$

TXZ213>215-236>238-242>244-246-247-251-254-255-020200-
CMAN STATIONS

STATION/POSITION TIME  TEMP    WIND        PRES    WAVE
                       AIR SEA DIR/SP/G            HT/PER
                 (UTC) (F)     (DEG/KT/KT) (MB)    (FT/S)
$$

GMZ080-GMZ150>470-020200-
OFFSHORE BUOY REPORTS

STATION/POSITION TIME  TEMP    WIND        PRES    WAVE
                       AIR SEA DIR/SP/G            HT/PER
                 (UTC) (F)     (DEG/KT/KT) (MB)    (FT/S)
$$



USA.gov is the U.S. government's official web portal to all federal, state and local government web resources and services.